Weather reports worldwide

Advertisment
Schaffen, Belgium (6465): temperature & dewpoint: 18.10.2020 00:00:00 - 24.10.2020 00:00:00 (CEST)Schaffen, Belgium (6465): wind speed & gusts: 18.10.2020 00:00:00 - 24.10.2020 00:00:00 (CEST)Schaffen, Belgium (6465): wind direction: 18.10.2020 00:00:00 - 24.10.2020 00:00:00 (CEST)Schaffen, Belgium (6465): reduced air pressure: 18.10.2020 00:00:00 - 24.10.2020 00:00:00 (CEST)Schaffen, Belgium (6465): visibility: 18.10.2020 00:00:00 - 24.10.2020 00:00:00 (CEST)
Date & Time tt [°C] td [°C] ff [km/h] ff [kn] fx [km/h] fx [kn] dd ppp [hPa] vv [km]
24.10.2020 00:00:00 - - - - - - - - -
23.10.2020 23:00:00 13,3 10,7 11 6 - - SSW 1012,1 20
23.10.2020 22:00:00 13,2 10,8 11 6 18 10 S 1011,2 20
23.10.2020 21:00:00 13,2 11,1 7 4 14 8 SSW 1011,2 20
23.10.2020 20:00:00 13,8 11,7 7 4 - - S 1010,8 20
23.10.2020 19:00:00 15,0 12,3 7 4 14 8 SSW 1010,7 20
23.10.2020 18:00:00 16,2 11,8 7 4 18 10 SSW 1010,2 20
23.10.2020 17:00:00 17,3 12,5 11 6 - - SW 1010,0 20
23.10.2020 16:00:00 17,7 13,4 11 6 25 14 SSW 1009,7 20
23.10.2020 15:00:00 16,3 14,0 7 4 18 10 SW 1010,1 20
23.10.2020 14:00:00 15,1 14,1 11 6 - - SSW 1010,2 10
23.10.2020 13:00:00 15,6 14,1 7 4 18 10 SSW 1010,6 20
23.10.2020 12:00:00 14,5 14,1 7 4 14 8 S 1010,7 13
23.10.2020 11:00:00 13,6 13,6 7 4 - - S 1010,8 3,4
23.10.2020 10:00:00 12,3 12,3 8 4 7 4 S 1010,8 1,1
23.10.2020 09:00:00 11,8 11,8 5 3 7 4 S 1010,7 1,3
23.10.2020 08:00:00 11,8 11,8 4 2 - - N 1010,7 0,7
23.10.2020 07:00:00 11,6 11,6 4 2 7 4 N 1010,7 0,2
23.10.2020 06:00:00 11,5 11,4 4 2 7 4 N 1011,1 0,3
23.10.2020 05:00:00 12,5 12,5 4 2 - - N 1011,6 3,0
23.10.2020 04:00:00 12,1 11,9 4 2 7 4 N 1011,8 1,5
23.10.2020 03:00:00 12,1 12,1 4 2 7 4 N 1012,3 1,9
23.10.2020 02:00:00 11,8 11,5 5 3 - - SW 1012,7 4,8
23.10.2020 01:00:00 12,6 12,4 4 2 11 6 N 1012,6 4,8
23.10.2020 00:00:00 12,1 11,8 5 3 7 4 SSW 1012,7 0,6
22.10.2020 23:00:00 12,0 11,5 5 3 - - SSW 1012,7 2,1
22.10.2020 22:00:00 13,5 12,8 4 2 7 4 N 1012,2 16
22.10.2020 21:00:00 14,0 12,8 5 3 7 4 SW 1011,8 10
22.10.2020 20:00:00 14,3 13,1 4 2 - - N 1012,1 16
22.10.2020 19:00:00 15,2 13,4 4 2 11 6 N 1011,6 20
22.10.2020 18:00:00 16,2 13,7 7 4 29 16 WSW 1011,0 20
22.10.2020 17:00:00 17,7 12,9 14 8 - - SW 1011,0 20
22.10.2020 16:00:00 17,8 13,4 11 6 22 12 SSW 1010,8 20
22.10.2020 15:00:00 17,1 13,3 11 6 22 12 SSW 1011,2 10
22.10.2020 14:00:00 17,3 13,2 11 6 - - SSW 1011,5 20
22.10.2020 13:00:00 16,7 13,3 11 6 22 12 SSW 1011,8 20
22.10.2020 12:00:00 16,3 13,2 14 8 25 14 SSW 1012,0 20
22.10.2020 11:00:00 16,0 13,1 13 7 - - SSW 1012,0 10
22.10.2020 10:00:00 15,6 12,8 14 8 25 14 SSW 1011,7 20
22.10.2020 09:00:00 14,1 12,2 11 6 22 12 SSW 1010,7 20
22.10.2020 08:00:00 14,1 11,9 11 6 - - S 1010,1 20
22.10.2020 07:00:00 13,8 11,7 7 4 18 10 SSW 1010,2 20
22.10.2020 06:00:00 14,1 11,7 7 4 22 12 SSW 1009,7 20
22.10.2020 05:00:00 14,3 11,6 14 8 - - SSW 1009,8 20
22.10.2020 04:00:00 13,9 11,6 11 6 22 12 SSW 1009,5 20
22.10.2020 03:00:00 14,4 11,9 11 6 22 12 SSW 1009,2 20
22.10.2020 02:00:00 16,0 12,0 11 6 - - SSW 1009,0 20
22.10.2020 01:00:00 16,8 12,6 14 8 22 12 SSW 1008,2 20
22.10.2020 00:00:00 16,0 13,1 7 4 29 16 SW 1007,6 20
21.10.2020 23:00:00 16,3 13,0 14 8 - - WSW 1007,1 20
21.10.2020 22:00:00 18,5 12,5 14 8 32 18 SW 1005,7 20
21.10.2020 21:00:00 18,2 13,1 14 8 43 23 SSW 1004,8 20
21.10.2020 20:00:00 18,8 12,5 18 10 - - SSW 1003,6 20
21.10.2020 19:00:00 19,1 12,6 25 14 47 25 SSW 1002,2 20
21.10.2020 18:00:00 19,8 12,3 25 14 50 27 SSW 1001,2 20
21.10.2020 17:00:00 20,2 12,5 25 14 - - SSW 1000,6 20
21.10.2020 16:00:00 20,8 12,4 32 18 68 37 SSW 999,8 20
21.10.2020 15:00:00 20,3 11,8 36 19 72 39 SSW 999,4 20
21.10.2020 14:00:00 20,6 11,4 36 19 - - SSW 999,3 20
21.10.2020 13:00:00 18,1 10,6 29 16 58 31 S 1000,2 10
21.10.2020 12:00:00 16,4 10,4 29 16 43 23 S 1000,2 20
21.10.2020 11:00:00 13,6 11,1 14 8 - - S 1002,2 20
21.10.2020 10:00:00 12,6 10,9 22 12 32 18 S 1003,3 14
21.10.2020 09:00:00 12,1 11,5 11 6 18 10 SSE 1003,6 15
21.10.2020 08:00:00 12,0 11,0 13 7 - - SSE - 10
21.10.2020 07:00:00 11,8 11,2 11 6 18 10 SSE 1003,3 14
21.10.2020 06:00:00 12,3 11,3 11 6 18 10 SSE 1003,5 15
21.10.2020 05:00:00 12,6 11,6 11 6 - - SSE 1004,2 14
21.10.2020 04:00:00 13,0 12,0 11 6 18 10 SSE 1004,8 20
21.10.2020 03:00:00 13,1 12,1 7 4 11 6 SSE 1005,7 18
21.10.2020 02:00:00 13,3 12,2 7 4 - - SSE 1006,1 20
21.10.2020 01:00:00 13,4 12,3 7 4 14 8 S 1006,7 20
21.10.2020 00:00:00 13,1 12,4 7 4 14 8 SSE 1007,2 20
20.10.2020 23:00:00 13,3 12,3 11 6 - - SSE 1007,7 11
20.10.2020 22:00:00 13,6 12,5 11 6 29 16 S 1007,7 20
20.10.2020 21:00:00 13,8 12,6 14 8 29 16 S 1008,2 20
20.10.2020 20:00:00 14,1 12,5 11 6 - - S 1008,2 19
20.10.2020 19:00:00 14,5 12,5 14 8 29 16 S 1008,0 20
20.10.2020 18:00:00 14,9 12,0 14 8 29 16 S 1008,0 20
20.10.2020 17:00:00 15,1 11,4 18 10 - - S 1008,5 20
20.10.2020 16:00:00 16,0 10,5 14 8 25 14 S 1008,7 20
20.10.2020 15:00:00 15,6 10,1 14 8 32 18 S 1008,5 20
20.10.2020 14:00:00 15,6 10,2 18 10 - - S 1008,2 20
20.10.2020 13:00:00 14,6 9,9 18 10 29 16 S 1008,7 20
20.10.2020 12:00:00 13,0 9,5 14 8 25 14 S 1009,0 20
20.10.2020 11:00:00 12,6 8,4 14 8 - - S 1008,7 20
20.10.2020 10:00:00 12,1 7,6 14 8 22 12 S 1008,6 20
20.10.2020 09:00:00 11,2 7,1 14 8 29 16 S 1008,5 20
20.10.2020 08:00:00 10,0 6,7 11 6 - - S 1008,3 20
20.10.2020 07:00:00 8,8 5,8 14 8 18 10 S 1008,7 20
20.10.2020 06:00:00 8,3 5,3 11 6 18 10 SSE 1008,8 20
20.10.2020 05:00:00 8,4 5,0 11 6 - - SSE 1009,2 20
20.10.2020 04:00:00 7,9 4,5 11 6 18 10 SSE 1010,6 20
20.10.2020 03:00:00 7,5 4,2 11 6 14 8 SSE 1011,2 20
20.10.2020 02:00:00 7,9 4,2 11 6 - - SE 1012,5 20
20.10.2020 01:00:00 8,2 4,3 7 4 18 10 SE 1013,2 20
20.10.2020 00:00:00 8,5 4,5 7 4 14 8 SE 1014,3 20
19.10.2020 23:00:00 9,2 4,8 11 6 - - SE 1014,8 20
19.10.2020 22:00:00 9,5 5,5 11 6 18 10 SE 1015,7 20
19.10.2020 21:00:00 9,3 5,7 11 6 14 8 SE 1017,1 20
19.10.2020 20:00:00 9,8 6,1 11 6 - - SE 1017,3 20
19.10.2020 19:00:00 10,7 5,7 7 4 14 8 SSE 1017,7 20
19.10.2020 18:00:00 12,3 6,0 7 4 18 10 SSE 1018,0 20
19.10.2020 17:00:00 13,9 5,2 11 6 - - S 1018,7 20
19.10.2020 16:00:00 14,4 5,1 11 6 25 14 S 1019,2 20
19.10.2020 15:00:00 14,3 5,7 14 8 25 14 S 1020,0 20
19.10.2020 14:00:00 14,3 6,6 11 6 - - S 1020,7 20
19.10.2020 13:00:00 12,6 8,1 11 6 18 10 S 1021,3 20
19.10.2020 12:00:00 10,9 8,5 7 4 14 8 SSE 1021,8 14
19.10.2020 11:00:00 8,7 8,2 4 2 - - N 1022,5 8
19.10.2020 10:00:00 7,3 7,0 5 3 7 4 SSE 1022,5 4,6
19.10.2020 09:00:00 6,9 6,9 2 1 7 4 - 1022,2 4,7
19.10.2020 08:00:00 6,5 6,5 4 2 - - N 1021,8 2,4
19.10.2020 07:00:00 6,3 6,2 5 3 7 4 S 1022,2 2,6
19.10.2020 06:00:00 7,0 6,4 7 4 7 4 N 1022,2 3,7
19.10.2020 05:00:00 8,4 7,2 4 2 - - N 1022,7 14
19.10.2020 04:00:00 8,8 7,4 7 4 11 6 WSW 1023,1 14
19.10.2020 03:00:00 9,0 7,8 7 4 11 6 WSW 1023,1 11
19.10.2020 02:00:00 9,2 8,0 7 4 - - N 1023,0 13
19.10.2020 01:00:00 9,4 8,2 4 2 11 6 N 1023,2 16
19.10.2020 00:00:00 9,5 8,4 4 2 7 4 N 1023,2 16
18.10.2020 23:00:00 9,6 8,5 4 2 - - N 1023,2 13
18.10.2020 22:00:00 9,9 8,3 4 2 7 4 N 1022,8 13
18.10.2020 21:00:00 10,3 8,7 7 4 11 6 W 1022,8 14
18.10.2020 20:00:00 10,5 8,6 4 2 - - N 1022,8 13
18.10.2020 19:00:00 11,1 8,8 7 4 14 8 W 1022,3 9
18.10.2020 18:00:00 11,8 8,3 4 2 11 6 N 1022,0 17
18.10.2020 17:00:00 12,3 8,5 8 4 - - WSW 1021,8 10
18.10.2020 16:00:00 12,4 8,5 7 4 14 8 WSW 1022,2 18
18.10.2020 15:00:00 12,1 8,4 11 6 14 8 WSW 1022,6 17
18.10.2020 14:00:00 11,6 8,1 7 4 - - SW 1022,8 11
18.10.2020 13:00:00 10,7 7,9 7 4 14 8 W 1023,5 6
18.10.2020 12:00:00 10,5 7,8 4 2 11 6 N 1023,2 6
18.10.2020 11:00:00 9,3 7,0 4 2 - - N 1023,1 6
18.10.2020 10:00:00 8,5 6,6 7 4 11 6 S 1022,8 6
18.10.2020 09:00:00 7,9 6,3 7 4 11 6 SSW 1022,6 5
18.10.2020 08:00:00 7,8 6,1 4 2 - - N 1022,2 6
18.10.2020 07:00:00 7,9 5,9 4 2 11 6 N 1022,0 8
18.10.2020 06:00:00 7,9 6,2 4 2 7 4 N 1022,2 8
18.10.2020 05:00:00 7,9 6,3 4 2 - - N 1022,2 7
18.10.2020 04:00:00 8,1 6,3 4 2 7 4 N 1022,2 8
18.10.2020 03:00:00 7,9 6,1 4 2 7 4 N 1022,2 3,6
18.10.2020 02:00:00 8,1 5,7 4 2 - - N 1022,2 10
18.10.2020 01:00:00 8,3 5,6 4 2 7 4 N 1022,2 9
18.10.2020 00:00:00 8,5 5,5 7 4 11 6 WSW 1022,0 10

tt = temperature
td = dewpoint
ff = wind speed
fx = gusts
dd = wind direction
ppp = reduced air pressure
vv = visibility

Next stations